Regional Weather Roundup
Issued by NWS

Home | Current Version | Previous Version | Graphics & Text | Print | Product List | Glossary On
Versions: 1 2 3 4 5 6 7 8 9 10 11 12 13 14 15 16 17 18 19 20 21 22 23 24 25 26 27
000
ASUS45 KPSR 231910
RWRAZ

ARIZONA HOURLY REGIONAL WEATHER ROUNDUP
NATIONAL WEATHER SERVICE PHOENIX AZ
1200 PM MST SAT SEP 23 2017

NOTE: FAIR INDICATES FEW OR NO CLOUDS BELOW 12,000 FEET WITH NO
SIGNIFICANT WEATHER AND/OR OBSTRUCTIONS TO VISIBILITY.

AZZ001>003-036-232000-
NORTHWEST ARIZONA

CITY           SKY/WX    TMP DP  RH WIND       PRES   REMARKS
BULLHEAD CITY  SUNNY     77  32  19 NW20      29.77F
KINGMAN        SUNNY     69  30  23 NW9G16    29.86S
$$

AZZ004>008-015-016-018-232000-
NORTH CENTRAL ARIZONA

CITY           SKY/WX    TMP DP  RH WIND       PRES   REMARKS
GRAND CANYON   SUNNY     57  15  19 W10G23    29.90F
WILLIAMS       SUNNY     57  14  18 S17G24    29.92F
PRESCOTT       SUNNY     64  18  17 S6G22     29.88S
FLAGSTAFF      SUNNY     57  12  17 SW20G30   29.92S
PAYSON           N/A     68  16  13 S13       29.90S
PAGE           SUNNY     67  22  18 NE5       29.77F
$$

AZZ009>014-017-232000-
NORTHEAST ARIZONA

CITY           SKY/WX    TMP DP  RH WIND       PRES   REMARKS
WINSLOW        SUNNY     75   8   7 SW20G29   29.82F
SAINT JOHNS    MOSUNNY   71  39  31 SW22G28   29.85F
WINDOW ROCK    MOSUNNY   58  48  69 S10       29.93F
SHOW LOW       PTSUNNY   61  45  55 SW18G33   29.93F
$$

AZZ540-542>544-546-548-232000-
GREATER PHOENIX AREA

CITY           SKY/WX    TMP DP  RH WIND       PRES   REMARKS
PHOENIX        MOSUNNY   81  26  13 VRB7      29.75S
BUCKEYE        SUNNY     81  25  12 SW9       29.77F
GLENDALE       SUNNY     81  28  15 S9        29.78S
LUKE AFB       SUNNY     81  26  13 SW13      29.75S
DEER VALLEY    SUNNY     78  25  14 SW13      29.77S
SCOTTSDALE     SUNNY     78  24  13 W5        29.79S
MESA-FALCON    SUNNY     79  28  15 CALM      29.78S
MESA-GATEWAY   MOSUNNY   81  27  13 SW5       29.78S
CHANDLER       SUNNY     81  25  12 S9        29.76F
$$

AZZ539-553-232000-
SOUTHWEST MARICOPA COUNTY AND PINAL COUNTY

CITY           SKY/WX    TMP DP  RH WIND       PRES   REMARKS
CASA GRANDE    NOT AVBL
GILA BEND      FAIR      80  33  17 W10       29.75F
$$

AZZ503-504-507>509-232000-
SOUTHEAST ARIZONA

CITY           SKY/WX    TMP DP  RH WIND       PRES   REMARKS
TUCSON         SUNNY     80  41  24 NW3       29.81F
DAVIS-MONTHAN  SUNNY     81  41  24 NW7       29.79F
RYAN FIELD     SUNNY     81  39  22 MISG      29.81F
NOGALES        SUNNY     79  40  24 S16G28    29.87S
SIERRA VISTA   MOSUNNY   76  38  25 SW21      29.90F
DOUGLAS        CLOUDY    79  47  32 SW17      29.86F
SAFFORD        MOSUNNY   82  45  27 S8        29.77F
$$

AZZ532-232000-
SOUTHWEST ARIZONA

CITY           SKY/WX    TMP DP  RH WIND       PRES   REMARKS
YUMA           SUNNY     80  44  27 VRB6      29.75F
$$

CAZ041-043-047-048-061-525>527-560>570-232000-
SOUTHERN CALIFORNIA

CITY           SKY/WX    TMP DP  RH WIND       PRES   REMARKS
DOWNTOWN L.A.  SUNNY     75  50  41 CALM      29.85S
L.A. AIRPORT   MOSUNNY   70  56  61 SW12      29.86S
SAN DIEGO      MOSUNNY   69  55  60 SW12      29.88S
BURBANK        SUNNY     70  45  40 VRB5      29.85F
ONTARIO        MOSUNNY   70  47  43 VRB3      29.85F
RIVERSIDE      SUNNY     70  50  49 VRB3      29.85F
PALM SPRINGS   SUNNY     82  35  18 N7        29.79F
EL CENTRO NAS  SUNNY     81  32  17 W7        29.77F
IMPERIAL       SUNNY     81  39  22 VRB5      29.75F
BLYTHE         SUNNY     81  27  14 N9        29.76F
NEEDLES        SUNNY     80  30  16 N12       29.78F
$$

NVZ020-UTZ003-232000-
SOUTHERN NEVADA-UTAH

CITY           SKY/WX    TMP DP  RH WIND       PRES   REMARKS
LAS VEGAS      MOSUNNY   72  28  19 N16       29.83F
SALT LAKE CITY CLOUDY    54  37  52 NW12      29.94F
$$

NMZ009-TXZ055-232000-
NEW MEXICO-WEST TEXAS

CITY           SKY/WX    TMP DP  RH WIND       PRES   REMARKS
ALBUQUERQUE    CLOUDY    79  42  26 S26G32    29.85F
EL PASO        PTSUNNY   80  61  52 E6G16     29.84F
$$


........................KEY........................
SKY/WX - SKY CONDITION/WEATHER
TMP    - TEMPERATURE IN FAHRENHEIT
DP     - DEW POINT IN FAHRENHEIT
RH     - RELATIVE HUMIDITY IN PERCENT
WIND   - DIRECTION AND SPEED IN MILES PER HOUR (MPH)
VRB    - VARIABLE WIND DIRECTION
PRES   - MEAN SEA LEVEL PRESSURE IN INCHES OF MERCURY
         F - FALLING PRESSURE   R - RISING PRESSURE
         S - STEADY PRESSURE
VSB    - VISIBILITY IN MILES
HX     - HEAT INDEX IN FAHRENHEIT
WCI    - WIND CHILL INDEX IN FAHRENHEIT
TC     - TEMPERATURE IN CELSIUS WHICH IS ALSO KNOWN AS
         TEMPERATURE IN CENTIGRADE
AFB    - AIR FORCE BASE
         LUKE AFB IS LUKE AIR FORCE BASE
         DAVIS-MONTHAN IS DAVIS-MONTHAN AIR FORCE BASE
NAS    - NAVAL AIR STATION
         EL CENTRO NAS IS EL CENTRO NAVAL AIR STATION
N/A    - NOT AVAILABLE





USA.gov is the U.S. government's official web portal to all federal, state and local government web resources and services.